This demonstration page uses our WeatherBlox Daily Observations layout. Learn more.

Left ArrowRight Arrow

38.80484, -77.04692

Hourly Observations for April 12, 2016

Temp ( °F °C ) Dew Point ( °F °C ) Humidity (%) Winds ( mph kmh ) Pressure ( in mb ) Visibility ( mi km ) Precip ( " mm )
12:52 am 00:52 Cloudy 68 20 50 10 53 53 SSW 20 31 29.95 1014 10 16 0.00 0.00
1:52 am 01:52 Cloudy 68 20 50 10 53 53 SSW 21 33 29.94 1014 10 16 0.00 0.00
2:52 am 02:52 Cloudy 67 19.4 51 10.6 57 57 SSW 21 33 29.93 1013 10 16 0.00 0.00
3:52 am 03:52 Cloudy 65 18.3 52 11.1 63 63 S 17 28 29.93 1013 10 16 0.00 0.00
4:52 am 04:52 Cloudy 64 17.8 52 11.1 65 65 SSW 14 22 29.94 1014 10 16 0.00 0.03
5:52 am 05:52 Cloudy with Light Rain 62 16.7 54 12.2 75 75 S 16 26 29.94 1014 10 16 0.00 0.03
6:52 am 06:52 Cloudy with Light Rain 61 16.1 55 12.8 81 81 SSW 14 22 29.97 1015 10 16 0.00 0.03
7:52 am 07:52 Cloudy with Light Rain 60 15.6 55 12.8 84 84 S 13 20 29.98 1015 10 16 0.01 0.25
8:52 am 08:52 Cloudy with Light Rain 61 16.1 56 13.3 84 84 SSW 14 22 30.00 1016 10 16 0.00 0.03
9:10 am 09:10 Cloudy with Light Rain 59 15 54 12 82 82 NNW 12 19 30.03 1017 8 13 0.00 0.00
9:25 am 09:25 Cloudy with Light Rain 59 15 53 11.7 81 81 NW 10 17 30.03 1017 10 16 0.01 0.25
9:52 am 09:52 Cloudy with Light Rain 57 13.9 53 11.7 87 87 NNW 10 17 30.05 1018 8 13 0.04 1.02
10:52 am 10:52 Cloudy 56 13.3 48 8.9 75 75 N 20 31 30.09 1019 10 16 0.00 0.03
11:52 am 11:52 Cloudy 57 13.9 44 6.7 62 62 NNW 18 30 30.10 1019 10 16 0.00 0.00
12:52 pm 12:52 Mostly Cloudy 61 16.1 43 6.1 52 52 N 20 31 30.10 1019 10 16 0.00 0.00
1:52 pm 13:52 Partly Cloudy 62 16.7 39 3.9 43 43 N 18 30 30.11 1020 10 16 0.00 0.00
2:52 pm 14:52 Partly Cloudy 62 16.7 36 2.2 38 38 NNW 16 26 30.11 1020 10 16 0.00 0.00
3:52 pm 15:52 Partly Cloudy 63 17.2 29 -1.7 28 28 NW 20 31 30.12 1020 10 16 0.00 0.00
4:52 pm 16:52 Partly Cloudy 63 17.2 26 -3.3 25 25 NNW 15 24 30.13 1020 10 16 0.00 0.00
5:52 pm 17:52 Mostly Sunny 61 16.1 25 -3.9 25 25 NNW 21 33 30.15 1021 10 16 0.00 0.00
6:52 pm 18:52 Mostly Sunny 60 15.6 25 -3.9 26 26 NNW 18 30 30.18 1022 10 16 0.00 0.00
7:52 pm 19:52 Mostly Clear 57 13.9 25 -3.9 29 29 NNW 15 24 30.21 1023 10 16 0.00 0.00
8:52 pm 20:52 Mostly Clear 55 12.8 26 -3.3 33 33 N 18 30 30.24 1024 10 16 0.00 0.00
9:52 pm 21:52 Mostly Clear 53 11.7 25 -3.9 34 34 N 10 17 30.27 1025 10 16 0.00 0.00
10:52 pm 22:52 Mostly Clear 52 11.1 27 -2.8 38 38 N 12 19 30.29 1026 10 16 0.00 0.00
11:52 pm 23:52 Clear 49 9.4 26 -3.3 41 41 N 10 17 30.30 1026 10 16 0.00 0.00

Powered by AerisWeather